Starlink 3344

operational
NORAD ID: 51110 Int'l Des: 2022-005 Owner: SPXS Country: US Constellation: starlink
LEOCIRCULAR

About Starlink 3344

Description loading...

Live Position

Loading 3D Globe...

Upcoming Passes

Altitude History

Altitude vs Time

uPlot chart will show altitude changes over time

Two-Line Element Set

1 51110U 22005G 25257.56669570 -.00000727 00000-0 -27571-4 0 9996
2 51110 53.2198 359.7500 0001296 71.9827 288.1307 15.08837082202295
Epoch: Sep 14, 2025 • Age: 19 hours

Current Status

Altitude 542.4 km
Velocity 7.60 km/s
Sub-Earth Point 39.18°N, 94.75°W
Launch Date Jan 19, 2022
Age 3.6 years
Type internet

Technical Details

Classification Payload
Mass 297.00 kg
Dry Mass 275.00 kg
Total Mass 297.00 kg
Length 0.20 m
Diameter 2.80 m
Span 9.00 m
Shape Box + pan
Manufacturer SPXS
Bus Type Starlink
Phase Status In Orbit
Owner/State SPXS/US

Large Constellations

Loading constellations...